Regional Weather Roundup
Issued by NWS

Home | Current Version | Previous Version | Text Only | Print | Product List | Glossary Off
Versions: 1 2 3 4 5 6 7 8 9 10 11 12 13 14 15 16 17 18 19 20 21 22 23 24 25 26 27

000
ASUS45 KBOI 191610
RWRID
WEATHER ROUNDUP FOR IDAHO
NATIONAL WEATHER SERVICE BOISE ID
1000 AM MDT SAT APR 19 2014

NOTE: "FAIR" INDICATES FEW OR NO CLOUDS BELOW 12000 FEET
WITH NO SIGNIFICANT WEATHER AND/OR OBSTRUCTIONS TO VISIBILITY

IDZ012-014-191700-
SOUTHWEST IDAHO


CITY           SKY/WX    TMP DP  RH WIND       PRES   REMARKS
BOISE          SUNNY     55  24  30 SE12      29.97S
CALDWELL       SUNNY     48  28  46 S6        30.00S
MOUNTAIN HOME  SUNNY     54  28  36 E15       29.98S
$$

IDZ016-017-191700-
SOUTHCENTRAL IDAHO


CITY           SKY/WX    TMP DP  RH WIND       PRES   REMARKS
BURLEY         SUNNY     49  31  49 E6        30.00F
JEROME         SUNNY     52  28  39 NE12      30.01S
TWIN FALLS     SUNNY     55  23  28 NE8       30.00S
$$

IDZ019>023-191700-
SOUTHEAST IDAHO


CITY           SKY/WX    TMP DP  RH WIND       PRES   REMARKS
IDAHO FALLS    MOSUNNY   48  23  37 S7        30.05S
POCATELLO      SUNNY     51  20  29 CALM      30.05R
REXBURG        SUNNY     47  22  37 SW7       30.05S
$$

IDZ006-010-011-018-031-032-191700-
CENTRAL IDAHO MOUNTAINS


CITY           SKY/WX    TMP DP  RH WIND       PRES   REMARKS
MCCALL         SUNNY     38  21  50 CALM      29.98S
HAILEY         MOSUNNY   46  12  25 NW9       30.05S
STANLEY          N/A     29  17  61 CALM      30.06F
SALMON         SUNNY     37  18  44 CALM      30.05S
CHALLIS        SUNNY     42  14  32 CALM      30.03F
$$

IDZ002-004-006-007-026-191700-
NORTHERN IDAHO


CITY           SKY/WX    TMP DP  RH WIND       PRES   REMARKS
LEWISTON       MOSUNNY   46  28  49 NE10      29.91F
LOWELL           N/A     41  32  70 N5        30.02F
COEUR D`ALENE  SUNNY     43  32  65 NE9       29.93F
MULLAN PASS    SUNNY     32  22  66 VRB6      29.90S WCI  26
$$



USA.gov is the U.S. government's official web portal to all federal, state and local government web resources and services.